Temperature
24 23 23 23 22 22 21 21 21 20 20 20 20 20 19 19 19 19 19 19 19 19 19 19 19 19 18 18 18 18 18 18 18 18 18 18 18 18 18 18 18 18 18
23 23 23 23 22 22 22 21 21 21 20 20 20 20 19 19 19 19 19 19 19 19 19 19 19 19 18 18 18 18 18 18 18 18 18 18 18 18 18 18 18 18 18
24 23 23 23 23 22 22 21 21 21 20 20 20 19 19 19 19 19 19 19 19 19 19 19 19 19 18 18 18 18 18 18 18 18 18 18 18 18 17 18 18 18 17
24 24 23 23 23 23 22 22 21 21 21 20 20 20 20 20 19 19 19 19 19 19 19 19 18 18 18 18 18 18 18 18 18 18 18 18 18 17 17 17 17 17 17
24 24 24 23 23 23 22 22 22 21 21 20 20 20 20 20 19 19 19 19 19 19 19 18 18 18 18 18 18 18 18 18 18 18 18 18 18 17 17 17 17 17 17
25 24 24 24 23 23 22 22 22 21 21 20 20 20 20 19 19 19 19 19 19 19 19 18 18 18 18 18 18 18 18 18 18 18 18 17 17 17 17 17 17 17 17
24 24 24 23 23 23 23 22 22 22 21 21 20 20 20 20 20 19 19 19 19 19 18 18 18 18 18 18 18 18 18 17 17 17 17 17 17 17 17 17 17 17 17
24 24 24 24 23 23 23 23 22 22 21 21 21 20 20 20 20 19 19 19 19 19 18 18 18 18 18 18 18 17 17 17 17 17 17 17 17 17 17 16 16 16 16
24 24 24 24 24 23 23 23 23 22 21 21 21 20 20 20 20 19 19 19 19 19 18 18 18 18 18 18 18 17 17 17 17 17 17 17 17 17 16 16 16 16 16
24 24 24 24 24 24 24 23 23 22 22 21 21 20 20 20 19 19 19 19 19 18 18 18 18 18 18 18 17 17 17 17 17 17 17 17 16 16 16 16 16 16 16
24 24 24 24 23 23 23 23 23 22 22 21 21 20 20 20 19 19 19 19 19 18 18 18 18 18 18 17 17 17 17 17 17 17 16 16 16 16 16 16 16 16 16
24 24 24 23 23 23 23 22 22 22 22 21 21 20 20 20 19 19 19 18 18 18 18 18 18 18 17 17 17 17 17 17 17 16 16 16 16 16 16 16 16 16 16
24 23 23 23 23 23 23 23 22 22 22 21 21 20 20 19 19 19 19 18 18 18 18 18 18 17 17 17 17 17 17 16 16 16 16 16 16 16 16 16 16 16 15
24 23 23 23 23 23 22 22 22 22 21 21 21 20 20 20 19 19 18 18 18 18 18 18 17 17 17 17 17 17 16 16 16 16 16 16 16 16 16 15 15 15 15
24 23 23 23 23 22 22 22 22 22 21 21 21 20 20 20 19 19 18 18 18 18 17 17 17 17 17 17 16 16 16 16 16 16 16 16 15 15 15 15 15 15 15
23 23 23 23 23 22 22 22 22 22 21 21 21 20 20 19 19 18 18 18 18 18 17 17 17 17 17 16 16 16 16 16 16 16 16 15 15 15 15 15 15 14 14
23 23 23 23 23 23 22 22 21 21 21 20 20 20 19 19 19 18 18 18 18 17 17 17 17 17 17 16 16 16 16 16 15 15 15 15 15 15 15 15 14 14 14
23 23 23 23 23 22 22 21 21 21 20 20 20 19 19 19 19 18 18 18 18 17 17 17 17 17 17 16 16 16 16 15 15 15 15 15 15 15 15 14 14 14 14
23 23 23 23 22 22 22 21 21 20 20 20 20 19 19 19 18 18 18 18 18 17 17 17 17 16 16 16 16 15 15 15 15 15 15 15 15 15 14 14 14 14 14
23 22 22 22 22 22 21 21 20 20 20 20 19 19 19 19 18 18 18 18 17 17 17 16 16 16 16 16 15 15 15 15 15 15 15 14 14 14 14 14 14 14 14
22 22 22 22 22 21 21 20 20 20 20 19 19 19 19 18 18 18 18 17 17 17 16 16 16 16 15 15 15 15 15 15 15 15 14 14 14 14 14 14 13 13 13
22 22 21 21 21 21 20 20 20 19 19 19 19 18 18 18 18 18 17 17 17 16 16 16 16 15 15 15 15 15 15 14 14 14 14 14 14 14 14 13 13 13 13
21 21 21 20 20 20 20 20 19 19 19 18 18 18 18 18 18 17 17 17 16 16 16 16 16 16 15 15 15 15 14 14 14 14 14 14 13 13 13 13 13 13 13
20 20 20 20 19 19 19 19 19 19 18 18 18 18 18 17 17 17 17 16 16 16 16 16 16 15 15 15 15 15 14 14 14 14 14 13 13 13 13 13 13 13 12
20 20 19 19 19 18 18 18 18 18 18 18 18 17 17 17 17 17 16 16 16 16 16 16 16 15 15 15 15 14 14 14 14 14 13 13 13 13 13 12 12 12 12
19 19 19 18 18 18 18 18 18 18 18 17 17 17 17 17 16 16 16 16 16 15 15 15 15 15 15 14 14 14 14 13 13 13 13 13 13 13 12 12 12 12 12
Wind_Speed
12 12 13 14 12 10 10 9 8 7 6 4 4 3 3 3 3 3 5 5 5 5 4 2 2 2 2 1 1 1 1 0 1 2 2 2 1 1 2 2 2 3 4
11 13 12 13 13 12 10 10 9 8 7 5 4 3 4 3 3 2 3 4 5 5 4 3 3 2 2 1 1 2 1 0 1 2 2 2 3 2 1 1 2 2 2
17 16 15 14 14 13 12 11 10 8 7 6 4 4 3 2 2 2 2 2 5 5 4 4 3 2 2 2 1 1 2 1 0 1 3 2 2 2 3 2 1 1 1
15 15 15 15 16 14 12 11 10 9 7 7 6 7 5 4 3 3 2 2 3 4 5 4 3 3 2 2 1 1 1 2 1 1 0 2 3 2 1 3 2 1 1
17 17 17 16 15 14 12 11 10 9 8 8 8 8 5 4 3 3 3 2 2 3 4 4 3 3 2 2 1 1 2 1 2 1 0 1 1 2 2 1 2 2 2
16 15 14 12 12 12 11 11 10 9 9 8 8 8 7 6 5 4 4 3 2 2 3 3 2 3 2 2 2 1 2 1 1 1 1 1 1 1 2 2 2 2 3
14 14 14 14 14 14 13 12 12 10 10 10 9 9 8 8 8 6 5 4 2 2 3 3 3 2 2 2 2 2 1 1 1 1 0 1 1 1 2 2 1 2 2
12 15 16 16 15 15 14 13 13 11 11 10 10 8 9 7 6 6 5 5 4 4 4 3 3 3 3 2 2 2 1 1 1 1 0 0 1 1 1 2 2 0 2
10 12 14 15 15 16 16 15 14 11 10 10 9 8 8 8 7 6 5 4 4 4 4 3 3 3 3 3 3 2 1 1 1 1 0 0 0 0 1 1 2 3 1
8 9 10 12 13 14 14 13 13 13 10 10 9 8 7 7 7 6 6 5 5 4 4 4 4 3 3 3 3 2 1 1 1 1 1 0 1 0 0 1 1 2 2
8 8 8 9 10 10 11 12 12 11 9 9 8 7 7 6 6 6 6 6 5 5 5 5 5 4 3 3 3 2 2 1 1 1 1 1 1 1 1 0 1 1 1
9 9 9 8 8 9 11 12 12 11 10 9 9 8 8 7 7 6 6 6 5 5 6 6 5 5 4 3 3 3 2 2 2 2 1 1 1 1 1 0 0 1 1
8 8 8 8 9 9 10 11 11 12 11 10 9 8 8 8 8 7 6 6 6 5 6 6 6 5 4 4 4 4 3 3 3 3 3 2 1 2 2 1 1 1 1
9 9 8 8 9 9 10 10 10 10 10 10 10 9 9 9 8 7 6 6 6 6 6 6 6 6 5 4 4 4 4 3 3 3 3 3 3 3 3 2 2 1 0
9 9 8 7 8 8 9 9 9 9 9 10 10 9 8 7 6 6 6 6 6 7 6 6 5 5 5 5 5 4 5 4 3 3 3 3 4 4 3 2 2 2 1
10 10 9 9 9 9 9 9 9 9 9 9 9 8 8 7 7 7 7 7 6 6 6 6 6 6 5 6 8 6 5 4 4 4 3 4 3 3 4 4 4 4 3
8 9 10 9 9 9 9 9 8 8 9 9 8 8 8 8 7 8 7 7 6 6 6 6 5 5 5 6 7 8 5 4 4 4 3 3 2 2 2 3 3 3 4
7 7 7 7 7 7 7 7 7 8 9 8 8 8 8 7 7 6 7 7 5 6 6 6 5 4 4 5 6 6 5 3 4 4 4 3 3 2 2 1 2 3 3
6 7 7 7 7 8 9 8 7 7 7 7 8 8 8 7 7 7 7 6 5 5 5 5 5 5 4 4 4 5 3 2 3 3 3 3 3 3 2 1 2 3 4
4 5 6 6 7 7 8 9 8 8 8 8 8 7 8 8 7 7 6 5 5 5 5 4 4 5 4 4 5 6 3 3 2 2 3 4 4 3 2 2 2 3 4
4 5 7 7 7 7 8 8 8 9 9 7 7 6 7 7 7 5 4 5 5 4 4 4 4 4 5 5 5 6 4 4 3 3 3 4 4 4 5 4 4 6 4
4 4 6 6 6 7 8 8 7 7 6 7 7 6 6 6 6 5 5 5 5 5 5 4 3 3 4 4 5 6 6 5 4 4 4 4 5 5 5 4 5 5 3
4 4 5 6 5 6 8 8 5 5 6 7 7 6 6 5 5 6 6 5 5 5 4 4 4 4 3 3 5 5 5 5 4 4 4 4 5 5 4 5 4 3 2
4 4 5 6 5 5 6 6 6 6 7 7 6 6 6 5 4 4 5 5 5 5 5 5 5 4 3 3 2 2 3 4 4 3 3 3 3 3 4 3 2 2 2
3 4 5 6 6 5 4 4 5 6 6 6 6 6 6 6 5 4 4 5 5 7 7 6 6 5 5 6 6 5 4 4 4 2 1 0 1 1 1 1 2 1 1
3 3 3 5 5 5 5 4 5 6 7 5 5 5 5 4 4 4 2 0 2 4 7 7 7 6 7 7 7 6 5 5 5 3 2 2 3 3 3 2 2 1 2
Wind_Direction
174 165 162 161 161 160 158 160 158 163 151 148 147 143 150 146 145 162 155 149 147 144 139 141 129 122 119 132 119 118 111 43 105 88 33 354 343 191 203 197 180 194 200
169 168 165 166 169 168 167 164 164 165 161 161 162 157 152 158 160 156 152 154 149 150 151 143 149 141 126 97 86 116 116 228 124 124 102 25 355 343 288 222 179 181 187
176 176 173 174 171 173 173 171 170 168 165 158 142 127 104 91 93 125 159 164 149 145 145 146 148 143 137 140 141 136 131 151 288 133 141 142 209 306 328 316 288 201 188
178 177 177 177 177 179 174 169 170 169 167 159 152 152 157 166 186 176 166 160 152 148 148 146 139 140 138 145 163 125 133 137 163 296 99 157 156 145 304 323 318 277 216
183 181 180 182 180 175 172 171 170 171 169 167 165 163 165 173 165 154 149 159 155 153 152 146 140 144 148 151 130 100 122 140 162 171 141 69 74 113 147 259 301 318 291
186 184 181 178 173 171 172 171 172 177 174 173 172 170 168 166 157 159 162 169 166 160 156 153 150 154 154 155 149 139 127 128 123 139 128 136 147 186 160 199 244 267 281
183 180 177 179 173 170 175 179 177 181 180 178 181 179 173 171 174 174 174 169 169 176 188 172 165 161 164 158 145 132 125 133 134 159 164 154 194 186 166 168 224 258 279
183 185 184 180 176 174 176 178 179 182 184 184 186 184 176 176 180 180 176 181 189 193 186 178 173 169 156 153 143 138 161 129 146 181 154 169 249 155 161 168 162 282 304
180 185 186 180 176 178 180 179 178 179 183 185 181 182 180 176 179 179 174 180 183 182 173 167 163 161 153 152 146 156 180 144 159 190 160 138 296 115 161 152 152 158 247
171 173 177 182 183 183 181 177 175 180 183 185 186 184 178 174 172 168 174 180 183 176 164 161 155 153 152 149 147 150 164 148 203 196 147 316 290 322 11 144 141 149 173
175 178 179 178 178 176 176 177 178 178 183 186 184 179 175 172 168 173 181 181 176 169 168 166 159 158 163 161 157 174 171 183 243 265 167 265 275 313 341 48 88 128 154
174 177 175 169 166 167 170 174 177 179 182 183 183 179 178 175 177 182 184 181 178 176 175 170 165 173 178 174 173 192 194 204 228 237 218 269 286 300 292 268 262 238 190
166 165 167 168 169 169 170 172 173 176 177 179 178 176 178 182 185 187 181 182 179 175 172 170 175 182 183 182 190 194 206 219 227 220 213 229 214 275 271 253 264 260 286
163 164 171 172 173 170 169 170 172 173 174 174 175 181 186 188 187 183 181 182 178 176 178 179 182 185 185 185 191 197 205 224 232 225 218 215 208 227 240 248 247 239 306
160 168 170 172 174 172 170 171 171 168 171 172 178 186 186 178 176 179 183 182 182 185 182 179 186 188 190 197 195 204 208 217 232 239 232 222 218 225 230 235 218 206 208
167 171 173 172 175 175 173 171 171 169 165 169 180 182 177 176 181 186 186 184 187 183 177 184 190 196 208 206 202 201 214 212 215 231 242 237 235 249 255 254 235 212 206
176 174 174 173 177 180 171 170 173 165 166 174 177 177 177 178 184 187 182 186 189 186 185 190 192 203 215 211 210 208 203 211 217 221 230 246 245 251 262 281 287 270 244
183 179 174 171 169 163 155 156 157 162 170 174 177 179 178 181 183 182 188 192 188 186 191 196 195 197 217 212 210 201 200 209 218 214 213 212 235 250 232 263 297 290 275
172 177 175 169 159 156 156 153 157 163 167 173 180 182 180 181 183 188 194 192 188 194 199 193 190 196 217 206 191 179 182 206 234 232 218 208 224 251 242 231 283 303 301
146 156 153 143 146 163 156 154 163 168 180 186 186 183 180 182 189 195 196 190 184 190 187 192 192 194 209 211 195 180 184 206 244 253 238 228 227 243 230 210 229 267 278
129 135 139 145 158 158 152 158 169 184 190 182 179 181 182 185 187 187 183 176 176 173 180 189 200 202 209 213 204 187 189 204 223 236 244 247 243 254 251 233 224 238 253
123 129 138 155 159 152 149 158 185 196 180 173 176 180 182 184 177 169 174 171 168 173 185 192 208 218 218 212 209 196 203 202 206 226 236 242 241 249 252 247 248 255 252
132 131 149 158 161 162 159 167 191 181 172 175 182 180 178 179 172 170 175 174 175 183 188 194 211 228 230 230 217 202 210 217 219 230 232 246 245 247 257 261 266 257 227
142 141 152 157 165 173 172 183 183 172 167 174 179 178 176 179 178 177 178 180 187 189 192 200 211 219 222 226 224 225 227 234 239 249 265 270 262 243 251 267 265 237 221
154 149 158 167 173 174 175 186 176 163 165 172 176 178 177 175 173 175 187 195 204 199 195 201 201 202 222 230 213 208 218 223 226 205 204 257 278 272 279 275 274 263 248
144 142 157 170 177 178 182 186 183 170 165 170 176 176 173 172 169 167 163 327 204 211 204 201 199 213 218 210 204 205 210 210 191 165 184 221 231 234 236 236 255 249 235
Height
1521 1524 1526 1529 1532 1533 1535 1536 1538 1539 1541 1542 1543 1544 1544 1545 1546 1547 1547 1548 1548 1548 1548 1549 1549 1549 1549 1550 1550 1550 1551 1551 1551 1552 1552 1552 1553 1553 1553 1553 1554 1554 1554
1519 1522 1524 1526 1529 1531 1533 1534 1536 1538 1539 1540 1542 1543 1544 1545 1546 1546 1547 1547 1547 1548 1548 1548 1548 1548 1548 1549 1549 1549 1550 1550 1551 1551 1551 1551 1553 1552 1552 1553 1553 1553 1553
1514 1517 1520 1522 1525 1528 1530 1532 1534 1536 1538 1539 1541 1542 1543 1544 1545 1545 1546 1547 1547 1547 1547 1548 1548 1548 1548 1548 1548 1549 1549 1549 1550 1550 1551 1551 1550 1551 1552 1552 1552 1552 1552
1511 1514 1517 1519 1521 1524 1528 1530 1533 1535 1536 1538 1539 1540 1541 1542 1544 1545 1545 1546 1546 1547 1547 1547 1547 1547 1547 1547 1548 1548 1548 1549 1549 1549 1549 1550 1550 1550 1550 1551 1550 1550 1550
1507 1510 1513 1516 1518 1522 1525 1528 1531 1533 1535 1536 1538 1539 1540 1542 1543 1544 1545 1545 1546 1546 1546 1547 1546 1546 1546 1547 1547 1547 1547 1548 1548 1548 1548 1548 1549 1549 1549 1548 1549 1549 1548
1505 1508 1511 1514 1517 1520 1523 1526 1529 1531 1533 1535 1537 1538 1539 1540 1542 1543 1543 1544 1545 1545 1545 1546 1546 1546 1546 1546 1546 1546 1546 1546 1547 1547 1547 1547 1547 1547 1547 1547 1546 1546 1547
1501 1504 1508 1511 1513 1516 1520 1523 1525 1528 1531 1533 1534 1536 1538 1539 1540 1541 1542 1543 1543 1543 1544 1544 1544 1544 1545 1545 1545 1545 1545 1545 1545 1546 1546 1546 1546 1546 1546 1546 1545 1545 1545
1497 1500 1503 1506 1510 1513 1517 1520 1522 1525 1528 1530 1532 1534 1536 1537 1538 1539 1540 1541 1542 1542 1542 1543 1543 1543 1543 1543 1543 1543 1543 1544 1544 1544 1544 1544 1544 1544 1544 1544 1544 1543 1543
1494 1497 1501 1504 1507 1510 1513 1516 1519 1522 1525 1527 1530 1532 1533 1535 1536 1538 1539 1539 1540 1540 1540 1541 1541 1541 1541 1542 1542 1542 1542 1542 1542 1542 1542 1542 1542 1542 1542 1542 1542 1542 1540
1493 1496 1499 1502 1505 1508 1510 1514 1516 1519 1522 1525 1527 1529 1531 1533 1534 1535 1536 1537 1538 1538 1538 1539 1539 1539 1540 1540 1540 1540 1540 1540 1540 1540 1540 1540 1540 1540 1540 1539 1539 1539 1539
1492 1494 1497 1500 1503 1506 1509 1511 1514 1517 1520 1522 1524 1526 1528 1530 1532 1533 1534 1534 1535 1536 1537 1537 1537 1537 1538 1538 1538 1538 1538 1538 1538 1538 1538 1538 1538 1538 1537 1537 1537 1536 1536
1489 1492 1495 1498 1500 1503 1506 1508 1511 1514 1517 1520 1522 1523 1525 1527 1529 1530 1531 1532 1533 1533 1534 1535 1535 1535 1535 1536 1536 1536 1536 1536 1536 1536 1536 1536 1536 1535 1535 1534 1534 1534 1533
1488 1490 1493 1496 1497 1500 1502 1505 1508 1511 1514 1517 1519 1521 1523 1524 1526 1527 1528 1530 1530 1531 1532 1532 1533 1533 1533 1533 1533 1534 1534 1534 1534 1534 1534 1533 1533 1533 1532 1532 1531 1531 1530
1485 1488 1491 1493 1495 1498 1500 1502 1505 1508 1511 1514 1516 1517 1519 1520 1522 1524 1525 1527 1528 1528 1529 1529 1530 1530 1531 1531 1531 1531 1531 1531 1531 1531 1531 1531 1531 1530 1530 1529 1528 1528 1527
1483 1486 1489 1491 1493 1496 1497 1499 1502 1505 1508 1510 1512 1514 1516 1518 1520 1521 1522 1524 1525 1525 1526 1526 1527 1527 1528 1528 1528 1528 1528 1529 1529 1529 1528 1528 1528 1528 1527 1527 1526 1525 1525
1479 1482 1485 1487 1490 1492 1494 1497 1499 1501 1505 1507 1509 1511 1513 1515 1517 1518 1519 1521 1521 1522 1523 1523 1524 1524 1525 1525 1526 1526 1525 1525 1525 1525 1525 1525 1525 1525 1524 1524 1523 1523 1522
1477 1479 1481 1483 1485 1488 1491 1493 1496 1499 1502 1504 1506 1508 1510 1512 1513 1515 1516 1517 1518 1519 1520 1520 1521 1521 1521 1522 1522 1522 1522 1522 1522 1522 1522 1522 1522 1521 1521 1520 1519 1519 1518
1476 1478 1479 1481 1483 1486 1489 1492 1494 1497 1499 1501 1503 1505 1507 1508 1510 1511 1512 1514 1515 1515 1516 1517 1518 1518 1518 1518 1519 1519 1519 1519 1519 1519 1518 1518 1518 1518 1518 1517 1516 1516 1515
1474 1476 1478 1479 1481 1484 1487 1490 1492 1494 1496 1498 1500 1502 1503 1505 1506 1507 1509 1510 1511 1512 1513 1514 1514 1514 1515 1515 1515 1516 1515 1515 1515 1515 1515 1515 1515 1515 1514 1514 1513 1512 1512
1473 1475 1477 1478 1480 1483 1485 1488 1490 1492 1493 1495 1497 1499 1500 1502 1503 1504 1506 1507 1508 1509 1510 1511 1511 1511 1512 1512 1512 1512 1512 1512 1512 1512 1512 1512 1512 1511 1511 1510 1510 1509 1509
1472 1474 1475 1477 1479 1481 1484 1485 1487 1488 1490 1492 1494 1496 1497 1499 1500 1502 1503 1504 1505 1506 1507 1507 1508 1508 1508 1508 1508 1509 1508 1508 1508 1509 1509 1508 1508 1508 1508 1508 1507 1507 1506
1471 1472 1474 1475 1478 1479 1481 1482 1484 1486 1488 1489 1491 1492 1494 1496 1497 1499 1499 1500 1502 1503 1503 1504 1505 1505 1505 1505 1504 1505 1505 1505 1504 1504 1505 1505 1505 1505 1505 1505 1505 1504 1504
1469 1471 1472 1474 1475 1477 1478 1479 1481 1483 1485 1486 1488 1489 1491 1493 1494 1496 1497 1498 1498 1499 1500 1501 1501 1501 1502 1502 1501 1501 1501 1501 1501 1501 1501 1502 1502 1503 1502 1502 1502 1501 1500
1468 1469 1471 1472 1473 1474 1476 1477 1479 1481 1482 1483 1485 1487 1488 1490 1492 1493 1494 1494 1495 1496 1496 1497 1498 1498 1498 1498 1498 1498 1498 1498 1498 1498 1498 1499 1499 1499 1499 1499 1498 1498 1498
1467 1468 1469 1469 1470 1472 1473 1475 1477 1478 1480 1481 1482 1484 1486 1487 1489 1490 1491 1492 1493 1493 1493 1494 1495 1495 1495 1495 1495 1495 1494 1494 1494 1494 1495 1495 1495 1495 1495 1495 1495 1495 1495
1465 1466 1466 1467 1468 1469 1470 1472 1474 1476 1476 1477 1479 1481 1482 1484 1485 1487 1488 1490 1491 1491 1491 1492 1492 1492 1493 1493 1492 1492 1492 1492 1492 1491 1491 1491 1492 1492 1491 1491 1491 1491 1491